ARIANE 42P DEB, 44514

Orbit data source: Space-Track

ARIANE 42P DEB, 44514 is space debris in LEO originally from a launch on Mon, 10 Aug 1992 UTC launched from the French Guiana (FRGUI). Debris objects in space refer to the collection of defunct objects orbiting the Earth. Examples of debris include non-operational satellites, rocket bodies, and fragments generated from explosions, collisions, or faulty payload assembly.

Loading next visibility...
Identifier
44514, 1992-052M
Orbit
LEO
Country
Flag of FRFR
Related business
Manufacturer
ArianeGroup
Mission
Spacecraft
Bus & Motor
Unknown
Mass
Unknown
Launch date (UTC)
1992-08-10 (33 years ago)
Launch vehicle
Unknown
Launch site
French Guiana (FRGUI)
Object type
Payload
Rocket body
Debris
Shape & HBR
Unknown shape, 0.1 m
Radar Cross Section
Small (<0.1 m²)

Expand to show TLE details & history
Last TLE update: 6 days ago

TLE from 6 days ago
0 ARIANE 42P DEB
1 44514U 92052M   25349.49189418  .00002612  00000-0  79702-2 0  9991
2 44514  65.7945 157.4936 0259021  85.5257 277.5304 12.96842335297933
Epoch: 2025-12-15T11:48Z
TLE epoch observation values (Epoch: 2025-12-15T11:48:19.657Z)
Latitude
-0.00007°
Longitude
-103.97802°
Altitude
1,255.486 km
Speed
7.238 km/s
True Right ascension
10h 29m 58s
True Declination
0° 00' 00"
Sunlit
Object was in daylight at epoch
Visualization orbit readout
Latitude
Unknown
Longitude
Unknown
Altitude
Unknown
Speed
Unknown
Apparent Right ascension
Unknown
Apparent Declination
Unknown
Sunlit
N/A
Visualization observer readout
Local Sidereal Time
00:39:10
Azimuth
Unknown
Elevation
Unknown
Doppler factor
Unknown
Orbital elements
Apogee altitude
1,471.247 km
Perigee altitude
1,074.882 km
Semi-major axis
7,651.201 km
Eccentricity
0.0259
Inclination
65.7945°
RAAN
157.4936°
Arg. of periapsis
85.5257°
True anomaly
274.57661°
Mean anomaly
277.5304°
Eccentric anomaly
276.0546°
Mean motion
3.24301 °/min
Orbital period
111.01 mins
BSTAR
0.0079702
Loading maneuver chart data...
Computing Atmospheric mass density...
Loading historical data...
Loading historical data...
Loading historical data...
Loading historical data...
Loading historical data...
Loading historical data...
Loading historical data...

Documentation

Showing up to 5 results
|